Theta_e
285 285 284 284 284 283 282 281 281 280 280 280 280 280 279 279 278 278 277 277 277 276 277 276 277 277 276 276 277 277 276 275 273 275 277 278 277 277 279 280 280 280 281
285 284 284 284 283 282 281 281 280 280 280 279 279 279 278 278 277 277 276 276 275 276 276 276 276 278 275 275 275 274 274 274 273 272 274 275 275 276 276 276 278 279 279
285 284 283 282 282 281 281 280 280 279 278 278 278 277 277 277 276 276 275 276 275 275 276 276 275 275 275 274 273 272 273 275 273 272 272 274 274 275 274 275 276 276 278
284 283 281 281 281 281 280 280 279 279 278 277 277 276 276 276 275 276 276 275 275 276 276 276 275 275 274 273 274 273 274 273 273 272 271 272 272 274 274 272 272 275 275
284 282 282 281 281 281 280 280 279 278 277 277 276 275 275 275 275 275 276 275 275 275 275 276 275 276 277 277 275 274 273 272 272 271 271 271 271 271 271 273 273 273 274
283 282 282 282 281 281 280 279 278 277 276 276 275 275 274 275 277 277 277 276 276 275 274 275 275 275 275 277 277 278 277 274 272 270 270 270 272 272 273 273 272 271 269
282 282 282 282 282 281 280 278 277 276 276 275 274 274 273 274 278 278 278 276 275 274 274 274 274 275 274 274 275 277 277 278 279 276 272 272 272 273 274 273 273 273 272
282 282 282 282 280 280 279 277 275 275 274 273 273 273 273 273 278 278 278 275 274 274 274 274 273 273 274 274 274 274 275 276 276 277 276 276 276 277 277 277 277 276 276
282 282 282 281 280 279 278 276 275 274 273 272 272 271 270 271 277 278 277 273 273 273 274 274 274 273 276 278 276 273 274 274 277 278 278 279 279 279 278 275 271 271 270
282 282 282 281 280 278 277 275 274 272 272 273 273 270 270 267 275 277 276 273 269 272 273 275 277 275 278 279 276 273 270 271 272 273 271 272 273 273 275 274 273 271 271
280 279 279 279 279 278 275 271 271 269 271 268 269 268 268 269 269 275 277 274 271 270 271 272 274 277 278 279 279 272 270 274 270 267 268 268 269 270 271 272 273 272 269
278 277 276 275 275 274 271 268 267 268 265 264 263 265 268 269 271 273 276 277 276 272 270 273 273 277 278 278 276 275 276 273 264 265 265 265 266 268 270 270 271 272 273
275 273 270 270 270 269 268 266 265 265 265 265 267 266 267 270 269 275 276 277 277 275 274 274 277 277 276 273 273 274 270 264 263 263 264 265 267 268 269 269 270 271 271
271 270 268 268 266 265 267 267 266 266 266 267 267 267 266 267 267 269 269 270 273 274 274 271 271 274 273 272 268 269 268 266 265 265 265 266 267 266 266 268 267 267 267
269 268 267 266 265 265 267 266 268 266 268 263 265 265 263 264 267 271 269 266 266 270 271 266 260 262 262 263 262 263 265 264 264 265 265 264 265 266 266 267 267 266 265
267 267 266 266 265 266 265 264 273 274 275 276 276 270 263 272 275 275 276 277 278 278 270 258 259 261 262 264 261 262 263 263 264 264 264 264 264 264 264 266 267 266 265
266 266 266 266 265 264 263 262 261 266 274 276 276 277 277 277 277 278 278 278 278 277 260 256 260 261 261 263 261 260 262 263 263 263 263 263 263 264 264 264 266 265 264
262 263 263 262 261 261 260 260 259 258 258 260 268 271 272 273 274 275 275 276 272 270 255 259 259 260 260 261 259 257 259 261 261 261 261 261 262 263 263 264 264 264 264
262 261 260 260 259 259 258 258 258 256 255 254 256 263 265 269 270 271 273 270 268 263 258 260 261 260 259 259 258 254 255 258 259 259 260 260 261 262 262 264 264 264 264
257 260 259 259 260 259 256 255 255 255 255 255 255 255 255 255 252 252 257 260 260 259 260 261 260 260 257 257 254 252 255 253 255 254 258 259 260 262 261 263 263 263 263
259 259 258 256 255 253 253 253 254 253 252 251 252 253 266 263 262 255 257 259 261 257 261 260 260 259 258 256 253 251 253 255 252 252 258 259 260 259 261 264 263 263 263
255 253 251 251 252 252 250 251 251 250 250 250 253 252 264 259 258 258 260 260 258 258 259 259 258 257 257 256 252 252 250 252 253 251 257 258 258 259 261 263 262 262 262
252 251 251 250 251 252 250 249 249 249 251 250 251 253 250 251 252 253 257 258 256 258 258 257 256 256 256 256 253 252 252 254 252 251 257 257 257 258 261 261 260 260 260
251 251 251 250 250 250 249 248 250 251 251 251 249 250 251 252 252 254 257 256 257 258 257 257 256 256 256 254 253 250 251 253 251 255 254 257 257 258 262 255 257 256 258
249 250 250 249 248 249 248 248 249 248 249 251 251 251 251 253 256 255 257 258 258 257 256 256 255 255 255 254 251 248 250 256 254 254 255 256 256 258 262 252 251 253 251
250 249 249 249 248 248 247 248 248 249 250 251 251 252 253 256 257 257 257 257 257 256 256 255 255 254 253 253 249 251 253 257 256 256 256 258 260 262 254 252 252 250 251
Wind_Speed
8 8 8 7 8 7 7 7 7 7 7 7 6 5 4 4 4 4 3 3 4 3 3 3 4 4 3 4 4 3 3 3 8 15 9 9 11 11 10 11 13 13 12
8 9 8 9 8 8 7 7 7 7 6 7 5 5 4 4 3 3 3 2 2 2 3 3 4 3 4 4 3 5 4 3 5 16 14 10 11 10 12 13 11 11 11
10 10 9 8 8 8 8 8 7 7 7 6 5 4 4 4 2 2 2 1 2 2 3 3 4 4 4 3 3 4 4 7 5 8 16 9 11 10 12 11 11 13 11
11 10 9 9 8 8 8 8 7 7 7 6 5 5 4 3 2 2 1 2 3 3 4 4 4 4 4 4 6 6 7 6 8 9 11 12 10 11 10 11 11 9 11
12 10 10 8 8 8 8 8 7 7 6 6 6 5 4 3 3 3 1 3 4 5 4 4 4 4 10 10 6 4 6 6 7 9 10 12 11 11 12 10 12 11 11
12 10 9 10 9 9 8 7 8 7 6 6 6 5 5 3 7 6 5 3 5 5 5 4 3 5 7 12 15 16 14 10 11 9 11 12 16 13 12 11 13 13 15
11 10 10 11 11 10 10 9 8 8 7 7 6 6 6 5 10 10 9 4 5 5 6 5 5 4 5 7 12 17 17 19 21 17 16 16 18 15 16 17 16 15 15
11 11 11 12 11 10 10 9 7 7 8 6 6 6 6 6 12 12 10 4 6 7 6 6 6 7 7 9 11 11 10 10 12 11 13 15 15 15 14 14 15 14 11
12 12 12 12 12 11 11 11 8 7 6 6 4 7 7 5 12 12 9 3 6 8 7 7 7 8 12 17 12 7 10 11 14 23 26 28 29 31 27 15 12 13 13
13 12 11 11 12 13 12 11 6 5 6 6 6 6 6 5 12 12 10 3 5 6 6 7 11 8 16 16 9 7 10 12 13 11 12 16 17 15 23 13 11 11 11
7 8 9 10 11 10 8 5 6 5 5 4 5 4 5 6 8 14 14 6 5 5 5 5 5 14 16 17 17 6 9 15 10 9 10 10 10 10 10 10 11 11 11
8 8 8 7 6 6 9 4 5 6 5 5 3 3 4 6 11 14 16 17 13 8 6 6 6 17 18 15 15 18 19 14 5 7 8 9 9 9 10 11 14 13 11
8 7 6 6 5 6 7 6 4 5 5 5 6 6 6 6 6 14 15 16 17 11 5 10 20 12 12 11 14 16 9 3 4 5 8 9 9 10 13 12 12 13 13
7 7 6 6 6 4 4 5 5 6 5 5 6 7 4 4 4 6 5 6 11 10 13 6 6 10 10 10 4 7 4 5 5 7 8 9 9 9 9 8 10 11 10
6 6 5 4 5 5 3 4 5 3 6 4 5 4 4 4 4 10 8 5 5 10 11 1 1 1 2 2 2 3 4 4 5 6 7 9 9 10 10 9 9 10 9
6 4 4 4 3 4 4 1 10 11 12 14 13 8 3 13 16 17 18 20 21 20 4 3 3 3 3 4 3 4 3 5 5 6 7 8 9 10 10 10 9 9 10
6 5 4 4 4 3 2 3 1 4 9 12 14 16 18 19 19 20 21 22 23 19 3 3 3 4 3 4 3 3 5 5 5 6 7 8 8 9 11 10 10 10 10
7 8 5 3 3 3 3 2 2 1 2 2 7 12 15 18 20 21 21 20 9 6 3 4 4 4 3 4 4 3 3 5 5 6 6 7 8 8 9 10 10 11 11
6 4 4 4 4 4 3 3 1 1 2 2 2 7 9 18 21 22 23 10 9 4 4 4 4 4 3 4 4 3 4 5 5 6 7 7 7 8 9 9 10 14 14
5 7 5 3 3 3 2 1 1 2 2 2 2 3 3 3 2 3 5 8 5 3 3 3 3 3 3 4 4 4 4 4 5 4 6 6 7 7 9 10 10 10 10
4 4 6 4 3 2 1 1 1 2 2 3 3 4 18 11 7 5 6 6 6 4 4 4 4 4 4 4 4 4 4 5 3 4 6 6 7 8 8 8 9 9 9
4 4 3 3 2 2 0 1 1 2 3 3 4 4 18 7 7 8 7 6 3 2 2 3 3 4 4 5 4 4 4 5 5 3 6 6 6 7 8 7 8 8 8
3 4 3 2 2 1 0 2 2 3 4 4 4 4 3 4 4 4 7 5 3 3 2 3 4 5 5 5 4 5 5 6 5 3 7 7 7 7 8 6 7 7 7
3 3 2 2 1 1 2 3 3 5 4 5 4 5 5 5 5 6 7 4 4 5 3 4 5 8 6 6 5 4 5 6 4 6 6 7 8 9 8 3 5 6 6
2 1 1 2 2 3 3 3 3 3 4 4 4 4 4 5 6 5 6 6 6 5 5 6 5 7 9 9 8 8 8 13 9 8 6 8 11 13 9 3 4 4 3
2 2 3 2 3 3 3 3 3 3 3 4 4 4 4 6 6 5 5 5 5 6 7 6 7 9 9 8 9 10 11 13 11 11 9 9 9 8 4 5 6 3 4
Wind_Direction
133 132 129 127 122 118 123 125 126 122 119 113 114 112 107 100 83 83 84 82 46 12 12 19 323 322 325 330 316 309 299 302 290 295 298 310 315 308 311 314 307 305 302
147 140 138 137 137 130 125 124 128 133 128 129 133 141 134 123 121 116 97 57 27 350 324 312 308 325 320 307 308 307 307 304 291 294 302 307 313 318 311 301 302 300 300
151 151 148 144 139 138 139 140 145 142 136 140 150 155 152 153 140 135 130 286 313 291 293 295 292 311 301 295 323 311 295 297 282 289 298 310 309 313 307 301 300 303 298
159 162 156 153 152 148 144 154 152 154 150 155 172 166 164 152 188 210 220 293 288 279 279 280 292 290 293 317 303 288 297 300 298 291 293 303 302 305 298 300 299 295 298
166 169 165 154 151 146 153 159 152 150 156 172 167 165 164 191 218 155 308 281 276 272 277 281 272 274 298 295 292 287 288 285 285 289 293 297 299 302 297 300 292 295 289
173 174 160 157 158 158 154 156 148 155 160 172 181 181 194 204 223 217 230 245 274 278 276 270 284 284 277 296 298 298 296 296 294 295 287 286 292 293 291 290 290 292 293
170 169 167 164 169 166 159 156 163 173 172 184 191 190 203 211 227 230 240 246 263 266 268 275 281 278 286 281 287 287 286 284 287 295 292 285 289 288 288 287 283 280 279
170 169 170 168 167 160 156 168 166 176 185 181 194 200 203 216 229 231 239 239 254 260 257 255 259 267 264 280 276 274 281 281 284 289 286 293 289 286 277 286 294 296 290
179 181 177 170 167 164 174 180 184 174 180 185 184 192 201 213 233 237 243 237 259 262 260 257 251 258 269 285 291 299 300 302 303 303 300 303 308 310 309 308 299 298 294
186 185 173 169 170 179 183 181 170 168 185 187 201 196 204 209 235 244 244 221 248 261 259 259 257 259 277 293 300 313 312 309 304 313 321 310 310 305 309 303 299 292 303
154 150 162 173 179 180 166 155 157 151 151 176 196 201 201 198 228 248 246 231 234 251 255 260 258 280 287 295 316 323 294 302 344 324 309 306 307 306 306 302 307 310 307
148 152 156 156 153 153 153 134 139 148 165 185 193 236 228 226 225 243 246 243 242 243 244 259 265 278 286 310 318 311 308 333 319 305 304 304 306 307 309 309 303 300 292
138 144 131 122 128 138 145 147 137 154 174 196 212 228 231 222 212 240 241 246 254 262 247 258 268 290 310 320 304 302 328 315 282 294 299 301 308 308 307 305 301 300 294
134 135 135 136 131 129 135 155 166 181 195 207 213 230 221 216 204 204 217 242 264 266 273 277 250 270 301 300 317 295 286 280 280 292 297 302 308 306 305 307 307 313 312
122 132 136 142 148 153 172 169 189 207 190 190 219 210 205 234 224 232 223 215 218 239 245 152 138 199 246 240 263 264 264 273 289 293 301 301 302 308 305 311 306 307 304
130 141 147 139 151 148 161 256 243 228 236 250 255 236 228 252 262 260 259 260 253 251 227 164 215 206 225 258 243 257 251 278 287 298 299 295 303 306 306 309 306 311 308
123 131 118 114 135 148 142 143 180 312 284 267 269 275 278 276 268 271 272 270 268 262 153 193 197 200 221 251 249 245 279 281 292 291 293 297 301 301 311 308 316 315 312
89 80 108 102 92 83 88 96 103 133 254 301 312 300 295 288 285 282 280 281 274 236 162 183 204 206 211 245 248 248 269 289 289 289 291 293 298 304 311 309 316 314 312
96 87 89 93 91 93 74 50 45 3 285 265 306 294 299 294 295 292 290 282 267 222 190 194 197 204 215 228 243 246 252 274 278 289 290 294 300 302 307 308 310 314 314
89 100 83 88 92 92 82 98 316 278 275 268 274 267 284 326 289 263 263 276 263 226 213 220 211 219 224 230 236 240 258 265 270 266 285 292 296 301 304 305 316 316 318
104 98 83 67 68 87 97 55 299 309 283 277 260 265 291 287 283 238 249 250 254 223 227 230 229 225 232 235 233 241 249 264 256 262 285 288 298 303 299 305 312 313 316
95 107 106 118 103 75 70 50 347 315 292 283 280 282 299 310 303 300 294 283 259 198 194 223 234 233 234 236 226 233 245 259 267 251 277 284 295 295 293 305 310 315 315
104 116 124 138 149 167 318 255 240 247 260 263 273 287 280 269 263 267 279 278 259 257 230 222 237 254 246 242 225 218 237 251 238 223 279 290 291 290 287 300 305 310 314
112 119 132 158 141 183 211 242 249 245 251 260 262 264 266 270 269 271 279 264 254 262 248 241 242 250 256 246 241 235 238 256 235 255 249 276 281 284 280 275 288 296 305
127 150 153 192 207 217 234 246 247 251 253 255 261 257 259 260 273 265 267 266 264 256 260 258 253 255 255 253 249 246 246 265 265 260 262 259 259 266 271 254 266 292 286
176 194 215 226 234 228 226 244 252 254 262 263 261 260 266 282 283 280 277 274 272 268 268 264 260 255 261 265 256 258 256 259 254 243 237 247 256 261 250 252 275 267 274